Location: Walsall
(52.5862°N, 1.9829°W)
Time: 23:41:57
(UTC+01:00)

X-37B - Pass Details

Date: 28 June 2021
Orbit: 383 x 392 km, 45.0° (Epoch: 01 July)

Event Time Altitude Azimuth Distance (km) Brightness Sun altitude
Rises 23:02:07 0° 254° (WSW) 2,257 4.6 -9.1°
Reaches altitude 10° 23:04:32 10° 236° (SW) 1,403 3.4 -9.3°
Maximum altitude 23:06:54 20° 187° (S) 965 2.1 -9.5°
Enters shadow 23:08:22 15° 152° (SSE) 1,151 2.3 -9.6°
